Theta_e
322 322 319 321 323 323 321 321 322 323 321 318 320 320 318 316 318 318 316 316 316 316 315 315 315 316 317 314 314 316 315 315 318 318 318 318 318 319 320 324 327 328 328 328 329 329 329 329 328 329 331 331 330 330 330 331 330 330 330 330 329 328 327 328 327 326 327 327 327 327 326 326 325 325 325 324 324 324 324 323 323 323 322 322 323
322 321 320 320 320 321 321 321 321 320 319 319 316 318 317 316 315 316 319 317 316 318 316 316 316 314 317 318 317 318 316 316 317 318 319 316 318 318 318 322 326 327 326 328 328 328 328 327 328 328 330 330 330 330 330 330 330 329 329 328 328 326 325 327 326 326 326 325 325 325 324 324 323 323 323 323 323 322 322 322 322 322 323 322 322
322 322 321 320 320 320 320 319 318 317 318 320 317 317 317 317 318 317 318 316 315 313 314 317 315 315 317 320 321 319 319 320 319 320 320 319 319 317 317 319 324 326 326 327 327 326 326 326 327 327 328 329 330 330 329 329 329 329 328 326 326 327 326 325 325 325 324 324 324 323 322 322 322 321 322 321 321 322 322 322 322 322 322 321 321
323 323 322 321 320 319 319 319 320 318 319 320 319 318 317 315 316 316 316 316 315 314 314 315 314 315 314 317 318 319 319 319 318 319 320 317 316 316 316 319 319 321 324 326 326 326 325 325 326 326 327 328 329 329 327 328 328 328 328 327 326 326 325 324 324 323 323 322 322 322 322 321 321 321 320 320 320 320 320 320 320 320 320 320 320
323 323 322 322 321 320 319 320 320 320 319 319 318 317 315 314 315 315 315 315 315 315 316 315 314 316 315 318 319 319 319 318 318 316 315 316 318 318 318 318 317 316 319 322 324 324 325 325 325 325 325 326 328 326 327 328 328 328 327 326 326 324 324 323 322 322 322 321 321 321 321 321 320 320 319 319 320 319 319 319 319 319 319 319 319
322 322 322 322 322 321 320 320 320 320 320 319 318 317 317 315 316 314 317 315 315 316 315 317 316 316 316 318 315 319 319 318 315 315 316 319 320 319 317 316 313 312 315 318 320 323 323 324 324 323 323 323 324 324 326 327 327 326 325 324 324 323 323 322 321 321 321 321 320 320 319 319 320 319 319 318 318 318 318 318 318 318 318 318 318
322 323 322 322 321 321 320 321 321 320 319 320 321 319 319 319 314 317 317 315 316 318 317 317 316 317 318 318 318 318 317 318 316 315 316 316 316 315 316 314 312 311 312 311 313 316 321 321 321 322 322 322 321 325 326 325 325 324 323 323 322 322 322 321 321 320 320 320 320 319 319 319 319 319 318 317 317 317 317 317 317 317 317 317 317
323 323 322 321 322 321 322 321 321 321 320 320 321 320 319 319 318 319 316 317 317 318 316 315 316 317 317 316 316 314 315 314 316 315 318 317 316 315 314 313 312 309 309 309 310 313 316 319 320 320 320 321 322 324 324 324 323 323 323 322 321 321 321 320 319 319 319 319 319 318 318 318 317 317 317 317 317 317 316 316 317 316 316 316 316
324 322 323 321 321 321 322 322 322 322 320 320 320 320 320 320 318 318 319 318 316 316 315 314 314 315 316 316 317 317 316 315 316 316 316 315 314 313 313 312 311 309 309 309 309 310 312 315 316 316 318 320 320 320 320 321 322 321 321 322 321 320 320 319 318 318 318 318 318 317 317 316 316 316 316 316 316 316 316 316 316 316 315 315 315
324 322 322 323 322 321 322 323 322 322 321 320 321 320 320 320 319 318 318 318 315 315 314 315 315 315 314 317 318 315 315 316 315 313 314 314 313 313 313 312 312 311 310 309 308 308 310 311 312 312 312 315 316 318 319 319 319 320 321 321 320 320 320 318 317 317 317 317 316 316 316 315 315 315 315 315 315 315 315 315 315 315 315 315 315
323 322 322 322 322 322 322 322 323 322 322 320 320 320 320 319 319 318 317 318 318 316 317 316 315 314 314 315 313 313 315 313 314 312 313 314 314 313 313 312 312 310 310 309 308 307 307 306 304 304 306 310 311 313 316 317 317 319 320 321 320 320 319 318 317 316 316 315 315 315 315 315 314 315 315 315 314 314 314 315 315 315 314 315 315
324 323 323 323 323 323 322 322 322 322 321 320 319 319 319 319 318 318 317 316 315 317 316 313 310 310 310 311 310 311 311 311 313 314 314 313 313 313 313 312 312 310 309 309 308 307 306 305 303 303 303 305 306 307 310 313 315 317 318 319 320 319 318 318 316 315 315 315 315 315 314 314 314 314 314 314 313 314 315 314 314 314 315 314 314
323 324 323 321 323 323 323 322 322 323 322 322 321 321 321 321 320 317 317 315 314 314 315 315 312 310 309 309 311 312 313 313 315 313 313 313 313 312 310 311 310 309 308 308 307 306 306 305 304 303 301 299 301 303 304 307 311 314 316 317 318 318 318 317 316 315 314 313 314 314 313 313 313 314 314 314 313 313 313 313 313 314 314 313 314
323 324 323 323 323 323 323 323 322 323 323 323 322 319 320 320 319 316 316 316 315 315 316 315 309 309 307 306 307 310 310 313 314 314 314 312 312 311 310 311 309 308 307 306 305 305 305 305 304 302 300 297 296 294 295 296 301 309 312 313 315 317 317 316 315 314 313 312 312 312 312 312 313 313 313 313 313 313 313 313 312 313 313 313 313
324 323 323 324 323 323 323 324 323 322 322 322 322 321 321 320 319 319 315 315 316 316 316 317 312 307 303 306 302 305 307 310 311 313 314 311 309 310 310 310 309 307 306 305 304 304 304 303 303 301 296 295 295 294 294 296 298 302 306 308 312 315 315 315 314 313 312 311 312 312 311 311 311 312 312 312 312 313 312 312 312 312 312 312 312
325 324 323 324 323 323 323 324 324 324 323 323 322 322 321 321 320 319 318 315 314 315 316 317 314 311 307 309 303 302 301 306 307 310 310 311 311 311 311 310 307 305 304 304 303 303 303 302 300 297 295 294 294 294 294 293 297 299 300 303 307 310 313 313 313 312 311 311 310 311 311 311 310 311 311 311 312 312 311 312 312 312 311 312 312
325 325 323 324 323 323 323 323 324 324 324 323 323 323 322 322 321 319 318 317 314 314 314 317 315 318 311 303 303 302 302 300 306 308 311 310 311 312 310 309 305 304 303 302 302 303 302 301 299 297 295 295 294 293 293 292 292 293 294 299 304 306 308 311 311 311 311 310 309 309 310 310 310 310 310 310 310 310 311 310 311 310 311 311 310
326 326 325 323 324 323 323 322 323 323 324 324 324 323 322 321 321 320 318 319 318 314 313 313 316 315 314 313 309 306 303 302 308 305 310 310 309 310 310 308 304 303 302 302 302 302 301 300 297 295 295 294 294 292 291 291 292 290 291 296 304 305 305 307 310 310 309 309 309 309 309 309 308 308 309 309 309 310 310 310 309 310 310 310 310
326 326 326 324 324 324 323 322 323 324 323 324 323 323 323 322 322 321 320 319 318 315 315 314 311 313 313 311 307 304 305 306 304 302 305 308 309 309 309 308 304 303 302 302 302 301 301 299 296 295 295 294 293 291 291 292 294 294 298 302 304 304 304 305 305 307 307 308 307 307 308 308 308 308 308 308 309 309 309 308 309 309 309 310 309
327 327 327 325 324 325 325 323 323 324 323 323 324 324 324 323 322 322 322 320 319 318 315 314 314 313 311 311 308 307 308 308 303 304 303 304 306 308 308 306 304 303 302 301 301 301 300 298 296 295 294 293 292 290 289 288 287 288 292 300 303 303 303 304 304 304 304 305 306 306 307 307 307 308 307 308 307 308 308 308 309 308 309 309 308
327 327 327 327 324 325 326 325 324 324 322 324 324 325 324 323 322 321 321 321 320 320 318 315 315 315 311 311 310 310 307 309 308 303 297 300 300 305 304 302 302 300 301 301 301 301 301 299 296 295 294 292 292 291 290 288 287 287 294 297 301 303 302 303 303 302 303 303 303 304 305 306 306 306 307 307 307 307 307 308 308 308 308 307 307
326 327 327 328 327 325 326 326 325 325 321 324 324 324 324 324 323 323 322 321 321 320 319 317 316 316 315 313 311 311 310 310 310 310 305 304 301 301 302 299 297 298 299 299 299 300 301 299 296 295 293 292 291 290 289 288 287 287 291 295 298 300 301 301 302 302 302 302 302 302 303 303 304 306 306 306 306 306 307 307 307 307 307 307 307
325 325 327 328 328 327 326 327 327 325 323 324 324 324 324 324 324 323 322 322 321 320 318 317 316 315 314 314 314 313 311 310 310 310 309 304 299 300 301 300 300 298 298 299 299 300 301 299 297 295 292 291 290 290 290 288 290 290 293 294 296 297 299 299 301 301 302 301 301 301 301 302 302 303 304 304 305 306 306 306 306 306 307 306 306
325 325 325 326 327 328 327 327 327 327 326 326 326 326 326 325 325 323 322 322 322 320 319 317 315 315 314 315 315 314 314 313 312 312 311 309 307 302 302 300 299 298 297 296 298 299 300 299 298 295 292 290 290 290 290 289 289 292 288 293 295 296 298 298 300 300 301 301 300 300 300 300 301 302 302 303 304 305 305 305 305 305 305 305 304
324 324 325 325 326 326 327 327 327 327 327 327 327 327 326 325 325 324 323 322 322 321 320 319 317 316 315 315 315 314 314 314 313 312 312 311 309 304 301 302 298 296 295 297 296 296 300 300 297 294 292 290 290 289 289 289 287 291 290 290 294 295 295 296 298 299 300 300 299 299 299 299 300 301 301 302 302 303 304 304 304 304 304 304 303
324 324 325 325 326 327 327 327 328 328 327 327 327 327 327 326 325 324 323 323 323 321 321 320 319 318 318 316 315 314 314 314 313 313 311 309 305 304 299 295 296 296 294 295 294 296 296 297 296 294 291 290 289 288 288 288 287 291 290 286 289 293 293 295 296 298 299 299 298 298 298 298 300 300 300 301 301 302 302 302 303 303 303 303 302
324 324 324 325 326 327 328 328 328 328 327 327 326 327 326 326 325 324 324 323 322 321 321 320 319 319 318 317 316 315 314 314 313 312 312 311 308 306 302 299 293 293 293 294 293 297 296 295 295 293 292 290 289 287 287 287 287 291 288 285 285 292 292 294 295 297 298 297 297 297 297 298 298 299 299 299 300 300 300 301 301 301 301 301 301
324 323 323 324 325 326 326 327 328 328 327 327 327 326 326 326 325 324 323 323 322 321 321 320 319 319 318 318 317 316 315 314 313 313 312 312 310 307 305 303 297 291 290 291 290 293 295 296 293 293 292 290 289 287 288 288 287 291 288 285 285 286 292 293 294 296 296 296 296 296 297 297 297 298 298 298 298 298 298 299 299 299 298 298 298
323 322 323 323 324 325 325 326 326 327 327 327 326 326 325 325 324 324 323 323 321 321 321 320 320 319 319 318 318 317 315 315 313 313 312 311 309 307 306 304 301 296 290 289 290 291 292 295 293 293 291 289 289 288 287 286 288 287 285 285 284 283 290 292 293 295 295 295 295 295 296 296 297 297 297 297 297 297 298 298 297 297 298 298 298
322 322 322 322 323 318 324 324 325 326 325 326 326 326 325 323 323 324 324 323 321 321 321 321 320 320 318 318 317 314 312 312 312 311 310 310 308 305 304 304 301 298 294 291 291 291 292 294 291 292 288 288 288 288 287 286 290 288 284 284 284 283 291 291 291 292 293 293 294 294 295 296 296 296 297 296 296 297 297 297 297 297 297 297 297
318 318 319 321 321 321 322 322 323 324 325 325 324 325 325 324 322 322 322 322 321 320 320 319 320 318 317 315 314 313 310 308 306 305 306 306 306 304 303 301 298 299 294 291 288 289 293 294 290 290 289 287 288 287 287 286 288 287 284 283 283 288 290 288 290 291 291 292 293 294 294 295 295 296 296 296 296 296 296 296 296 296 296 296 296
317 317 318 319 319 319 320 321 321 322 323 323 323 323 323 323 322 320 319 320 320 319 318 318 318 317 315 312 309 309 306 305 304 303 302 302 302 302 301 299 297 293 292 289 288 288 289 293 288 289 289 287 286 286 285 286 288 289 283 284 284 288 284 283 288 290 291 291 292 292 293 294 294 294 294 294 294 294 295 295 295 295 295 294 294
314 315 315 316 318 318 319 319 321 321 321 321 322 321 320 320 321 320 317 317 317 317 315 313 313 314 313 312 308 307 305 304 302 300 299 299 298 299 298 298 296 292 291 289 288 285 286 286 287 287 287 287 284 284 285 285 284 284 286 283 284 283 283 284 284 287 290 291 291 291 292 292 292 292 293 292 292 293 293 294 294 293 293 293 292
312 315 315 315 315 317 318 319 319 320 320 320 318 317 318 319 319 319 317 315 314 313 309 310 309 310 309 309 305 303 303 305 302 300 299 297 297 296 295 296 296 292 289 290 288 287 285 284 285 285 285 286 285 284 284 284 283 282 283 283 285 285 284 285 284 284 289 290 290 291 291 291 291 291 291 291 291 291 292 292 292 291 291 291 290
306 312 313 313 314 316 317 318 319 319 319 318 318 317 316 316 316 317 317 316 315 311 308 308 307 306 305 304 302 300 301 301 299 300 298 298 297 297 295 294 295 293 290 287 286 285 285 285 284 285 285 284 283 283 283 283 283 283 283 284 285 285 285 284 284 284 288 290 290 290 290 290 290 290 290 290 290 290 290 290 291 290 290 289 289
305 307 309 312 312 314 316 316 317 317 317 316 316 316 317 316 315 314 312 313 314 312 310 308 307 305 305 302 300 299 300 300 298 297 296 296 296 296 294 291 292 291 290 287 286 285 285 285 283 284 284 284 283 282 283 283 283 283 284 284 284 284 284 285 283 282 285 289 289 289 289 289 288 288 289 289 289 289 289 289 289 289 289 288 287
306 307 307 308 311 311 312 312 313 313 314 315 315 314 314 315 315 314 312 311 311 310 309 308 302 306 304 303 300 299 299 300 297 296 295 295 295 294 294 291 289 289 288 287 286 284 285 285 284 283 282 282 282 282 283 284 283 282 282 282 283 283 283 283 283 283 287 288 288 287 287 287 287 287 287 288 288 288 288 288 288 288 287 287 286
307 307 308 307 306 308 308 310 310 310 309 311 313 314 314 313 312 312 311 310 310 309 308 308 307 306 304 303 300 299 298 299 296 295 294 294 293 293 293 291 288 286 286 285 285 284 284 284 284 283 282 283 282 281 281 282 282 282 282 282 282 282 282 281 281 282 282 282 282 283 284 285 286 286 286 286 287 287 287 287 287 286 285 285 285
306 307 305 306 305 308 310 309 309 310 311 311 311 311 312 311 310 309 307 307 306 305 305 305 305 305 303 301 299 298 297 298 296 294 293 293 293 293 293 291 287 285 285 285 284 284 283 283 282 282 283 282 281 281 280 281 281 281 280 280 280 281 281 280 280 280 280 281 283 285 285 285 284 283 284 285 285 286 286 286 286 285 284 284 285
302 303 305 306 307 306 308 309 310 308 309 310 310 310 310 309 308 307 307 306 304 303 300 299 299 300 300 299 297 297 298 298 298 296 294 294 293 292 290 288 286 285 284 284 284 283 282 282 282 281 281 280 280 280 281 281 280 278 280 280 279 279 279 280 280 279 280 279 279 280 281 281 280 281 282 283 283 284 284 284 283 283 283 284 285
298 298 300 302 302 302 301 301 303 303 305 306 307 307 307 306 306 306 306 304 301 299 298 297 297 297 297 296 297 297 296 294 293 293 293 293 293 291 288 287 285 284 283 283 283 282 282 281 280 281 280 280 280 280 280 280 280 281 280 279 279 279 278 278 279 279 278 277 277 277 278 279 277 277 277 277 278 280 280 282 282 282 282 284 285
291 291 292 293 294 297 297 297 296 299 301 303 299 299 300 305 305 305 303 298 296 296 295 294 294 294 295 295 296 291 291 291 291 291 292 292 291 292 288 286 286 285 283 282 281 282 281 280 280 280 280 280 281 281 281 281 281 279 279 279 278 278 277 277 278 278 278 277 275 275 277 278 277 276 276 276 277 279 278 277 277 279 282 284 285
291 291 290 293 293 292 293 295 295 296 298 300 296 299 300 300 303 302 301 299 297 296 295 295 294 293 292 293 292 290 289 288 290 290 291 291 290 290 289 288 288 285 283 282 282 282 281 280 281 280 280 280 281 282 281 281 280 280 279 279 279 277 276 274 274 276 279 276 274 272 274 277 277 275 275 276 276 276 277 277 281 282 283 284 285
289 289 290 291 291 291 292 292 293 294 295 294 297 297 298 299 298 299 297 297 295 295 294 294 294 292 291 291 290 291 291 291 290 289 289 289 289 289 289 288 288 288 288 285 283 282 281 280 280 280 280 280 281 281 281 280 280 279 279 279 278 277 276 275 275 274 277 277 274 270 272 276 276 275 274 275 275 276 277 280 282 282 283 284 284
288 290 289 289 290 289 290 292 292 292 292 293 295 296 296 297 298 296 295 295 294 293 293 293 293 292 291 290 290 289 290 287 288 289 289 288 288 289 288 288 288 288 289 289 288 285 283 281 281 281 281 281 280 280 282 281 281 279 279 278 278 277 276 275 275 275 276 276 273 269 270 274 275 273 273 274 275 275 276 279 280 281 283 283 283
288 288 288 288 288 289 289 289 290 291 291 292 294 295 295 296 297 297 295 294 293 293 293 292 292 291 291 290 289 288 288 288 288 288 287 287 287 286 285 285 285 286 288 288 287 287 285 283 282 281 282 281 280 281 282 283 280 280 279 278 278 276 275 275 276 276 277 277 273 269 269 271 273 272 271 273 274 275 274 277 280 281 282 282 282
288 288 288 288 288 288 288 288 289 290 291 292 293 294 295 295 296 295 293 292 291 291 291 291 291 291 291 290 290 289 287 287 287 287 286 286 285 284 283 283 284 284 285 285 285 284 284 283 281 281 280 281 280 280 281 282 282 281 281 279 278 277 275 274 274 276 276 277 275 272 266 267 271 269 270 272 272 273 274 276 279 280 281 281 281
288 288 288 288 288 288 288 288 288 289 289 291 292 293 294 295 296 293 291 291 291 290 290 290 290 290 290 289 289 288 287 287 286 287 286 285 283 282 282 282 283 283 284 285 285 284 282 281 281 280 279 280 283 281 282 281 280 279 277 275 275 273 271 271 272 271 271 275 275 272 266 266 270 269 269 271 272 271 272 272 276 279 279 279 279
287 288 287 287 287 288 288 287 288 288 288 288 290 292 293 294 294 290 289 290 289 289 289 288 288 288 288 288 288 288 287 286 287 289 288 285 282 281 281 281 282 281 282 282 284 285 285 285 285 285 285 286 285 285 285 284 281 279 276 274 274 272 271 270 269 267 271 272 272 272 267 267 267 266 268 269 269 270 269 271 273 277 277 277 278
287 287 287 287 287 287 287 287 287 288 288 287 290 291 292 293 291 289 288 288 288 288 286 286 286 286 287 286 286 287 286 285 288 289 288 285 282 281 281 281 280 280 280 280 280 282 285 285 285 285 285 285 285 285 285 284 283 280 276 275 274 272 271 271 271 267 268 270 270 271 264 265 265 266 266 267 267 266 268 270 272 272 275 275 277
287 287 287 287 286 286 286 287 287 287 286 286 289 291 292 293 290 288 288 288 288 287 287 286 285 286 285 285 285 286 285 285 289 289 288 285 282 282 281 280 279 279 280 279 280 279 279 278 278 279 280 283 282 282 283 285 284 281 278 277 274 273 272 271 270 267 267 266 270 271 266 263 267 266 265 264 262 264 265 268 269 270 271 271 272
Wind_Speed
6 6 5 6 6 6 5 6 6 6 5 6 5 5 5 4 4 5 4 3 3 3 3 3 4 4 4 4 3 3 4 3 3 3 3 2 2 4 8 6 4 2 3 4 4 3 3 3 3 3 4 4 4 5 7 7 9 9 9 10 11 11 11 11 11 11 12 13 14 14 14 15 14 15 15 15 15 15 15 15 16 16 16 17 17
6 6 6 6 6 6 6 6 7 6 6 6 4 4 4 3 3 3 4 4 4 6 4 5 4 4 4 5 4 4 4 4 4 5 4 3 3 3 8 6 5 4 5 5 5 4 3 2 3 3 4 4 5 6 7 7 9 9 10 11 12 10 11 13 13 14 13 14 15 14 14 14 14 14 14 15 15 15 15 16 16 16 17 17 17
6 6 6 6 5 5 6 5 5 4 5 5 4 4 4 5 5 6 5 4 5 3 4 5 4 3 3 4 5 5 4 5 5 4 3 4 3 3 4 7 6 6 6 6 7 5 4 3 3 3 3 5 6 7 7 8 8 9 10 10 11 14 13 13 13 13 14 14 14 14 13 13 13 14 14 15 15 15 15 16 16 16 16 17 17
6 6 6 6 5 5 5 5 6 5 5 5 5 5 5 4 5 4 4 4 3 2 3 3 3 4 3 4 3 4 5 5 4 3 4 3 3 3 4 5 6 6 5 8 8 7 5 4 4 4 5 4 5 5 6 6 8 10 12 12 13 12 13 13 13 14 14 13 13 12 13 13 13 14 14 14 15 15 15 15 15 16 16 17 17
7 7 7 6 6 6 5 5 5 5 5 5 5 5 4 3 3 3 4 3 2 3 2 3 3 4 3 4 4 4 6 5 4 4 4 4 3 4 6 5 4 5 6 8 8 8 7 7 6 5 4 4 5 4 5 7 9 11 11 12 13 12 12 12 12 12 12 12 12 12 13 13 13 13 13 13 14 14 14 15 15 15 16 16 16
6 6 7 6 6 6 6 6 6 5 5 6 6 6 6 4 4 3 4 3 3 4 3 4 4 4 3 4 3 5 6 4 4 5 4 4 3 5 6 5 5 3 4 7 7 7 8 7 7 6 5 3 3 3 6 8 9 11 11 11 12 11 12 12 12 12 12 12 12 12 12 13 13 13 13 13 13 13 14 14 14 15 15 15 16
6 7 7 7 7 7 7 7 6 6 6 6 6 6 6 6 4 5 4 4 4 5 4 5 4 5 6 5 5 5 3 5 4 4 3 2 5 5 6 6 5 4 4 4 5 7 8 8 6 5 5 4 2 7 8 7 9 10 10 10 11 11 11 11 12 12 12 12 12 12 12 12 12 12 12 13 13 13 14 14 14 14 14 15 15
8 7 7 7 8 7 7 7 7 7 7 6 6 7 6 6 5 6 6 6 5 6 4 5 5 6 5 4 6 4 4 4 4 3 3 4 5 5 6 6 6 5 5 5 4 4 8 8 8 6 4 4 7 8 8 9 9 10 10 10 10 11 11 11 11 11 12 11 11 11 12 11 11 12 12 12 12 12 12 12 13 13 13 14 14
9 7 7 8 7 8 7 8 7 7 7 7 7 7 6 6 6 6 7 7 6 6 5 5 4 5 4 4 5 5 5 5 5 4 3 5 5 5 6 5 6 6 5 5 4 5 7 9 8 8 8 9 7 8 9 10 9 9 9 9 10 10 10 10 11 11 11 11 11 11 11 11 11 11 11 11 11 11 12 12 12 13 13 13 14
9 7 7 8 8 8 7 8 8 7 7 7 8 7 7 7 7 6 7 6 6 5 5 4 4 4 4 4 4 5 6 5 3 4 5 5 5 5 6 5 6 6 6 5 5 5 5 7 10 10 10 9 9 7 9 8 8 8 8 9 9 10 10 10 10 10 10 10 10 10 10 10 10 10 10 10 11 11 11 11 11 12 12 13 13
9 8 8 7 8 8 7 8 8 8 8 8 8 8 7 7 7 6 5 6 6 6 6 6 4 3 3 4 3 4 5 3 4 5 5 6 6 5 4 5 5 5 6 6 5 5 5 4 5 5 6 10 10 10 9 8 7 7 8 8 8 9 9 9 9 9 9 10 10 9 9 9 9 9 9 10 10 10 10 10 11 11 12 12 13
9 9 9 8 8 9 8 7 8 8 9 9 8 8 9 8 7 7 6 6 5 6 5 4 3 3 4 4 3 3 4 3 4 4 5 6 6 6 6 5 5 5 5 6 6 5 5 4 4 5 5 7 10 9 9 9 8 8 7 7 7 8 8 8 9 9 9 9 9 8 8 8 8 8 8 9 9 10 10 10 11 11 12 12 13
10 9 10 9 8 8 9 8 7 8 9 10 9 9 9 9 8 7 8 7 6 5 5 5 4 3 2 3 5 4 4 4 5 5 6 6 6 6 5 6 4 5 4 6 5 6 5 5 5 5 5 5 5 8 9 9 9 9 8 7 7 7 7 8 8 9 8 8 7 7 7 7 7 7 8 9 9 10 10 10 11 11 12 12 13
10 10 10 10 9 8 9 10 8 8 9 9 9 9 9 8 7 6 6 9 7 7 6 6 3 5 3 2 3 4 3 3 4 5 6 5 6 6 5 6 5 5 4 5 5 6 6 6 5 4 4 5 4 3 4 4 5 8 9 8 7 6 7 7 8 7 7 7 6 6 6 7 7 8 8 9 9 10 10 10 11 11 12 12 13
11 11 11 11 11 10 10 9 10 8 8 9 9 10 9 11 9 9 6 5 6 5 7 8 6 4 2 1 2 1 2 1 1 4 5 5 5 6 6 5 6 6 6 6 5 5 5 5 5 4 4 4 4 3 3 3 4 8 8 9 8 7 6 6 6 6 6 5 6 6 6 7 8 8 9 9 10 10 10 10 11 11 12 12 13
12 12 11 11 12 12 10 10 10 9 10 10 10 11 10 9 9 9 7 7 6 7 7 8 6 7 3 6 4 3 2 6 4 4 4 6 7 7 6 6 7 6 6 6 6 5 5 6 6 5 4 4 4 3 3 2 4 6 6 6 8 7 6 5 5 5 5 5 5 6 6 7 8 8 9 9 10 10 10 10 10 11 12 12 13
12 13 12 13 12 12 12 12 11 11 10 11 11 12 12 11 12 10 11 10 8 6 6 7 9 9 7 4 1 1 6 3 5 3 3 4 5 7 6 7 7 7 6 5 5 6 6 6 5 5 4 4 3 3 3 2 3 3 4 4 5 6 6 4 4 4 4 5 6 6 7 7 8 8 9 9 10 10 10 10 11 11 12 13 13
11 13 13 12 13 13 13 12 12 11 12 11 11 10 12 12 12 11 12 11 9 7 6 5 8 10 9 7 7 5 5 3 6 4 2 1 3 3 6 7 7 7 6 6 6 6 6 6 5 5 5 4 4 3 3 3 3 3 2 1 5 4 5 4 4 5 5 6 6 7 7 7 7 8 8 9 10 10 10 10 11 12 12 13 14
11 12 12 13 12 13 13 13 12 12 11 11 12 13 12 13 11 11 11 10 8 9 10 8 3 6 8 6 3 2 5 6 6 4 6 3 3 4 3 5 6 7 7 7 7 7 5 6 5 5 4 4 4 3 3 3 4 4 3 2 3 3 4 5 5 6 6 6 6 7 7 7 8 8 9 9 10 10 11 11 12 13 13 14 15
10 11 12 12 12 12 12 12 12 12 12 12 13 12 10 10 11 13 11 10 11 11 10 8 11 7 7 6 4 3 3 1 2 6 6 7 4 0 2 3 5 5 7 7 7 8 7 6 6 5 5 5 4 3 3 3 2 2 1 2 2 3 4 5 5 5 5 6 7 7 7 7 8 9 9 10 11 11 12 12 13 13 14 15 15
10 11 11 12 12 12 12 12 12 12 11 11 12 12 13 12 12 11 12 11 10 10 9 10 10 9 7 6 5 5 4 4 3 3 4 6 5 8 5 1 1 3 5 6 6 7 8 7 6 6 6 5 4 4 4 3 2 1 3 3 3 3 4 4 4 4 4 5 6 7 7 8 9 10 10 11 11 12 12 13 13 14 15 15 16
12 12 12 13 13 13 13 14 14 12 11 12 12 12 12 13 13 13 13 12 10 10 12 9 10 9 10 9 8 5 5 5 5 5 3 3 6 8 8 9 7 6 4 6 7 6 7 7 7 6 5 5 5 5 4 3 2 1 1 3 3 3 3 4 3 4 4 4 5 6 7 8 9 10 11 12 12 12 13 13 14 15 15 16 16
11 12 14 14 14 14 14 15 13 12 12 12 12 13 12 12 12 12 13 14 11 11 10 10 10 9 11 10 11 11 11 10 9 8 7 4 2 6 5 8 9 7 7 6 7 7 7 7 7 6 6 5 5 5 5 3 3 2 1 2 3 2 2 3 3 4 4 4 5 6 6 8 9 10 11 12 12 13 13 14 14 15 15 16 17
12 13 14 16 14 13 13 14 13 13 14 12 12 12 11 11 11 11 12 13 11 11 11 11 11 10 11 10 10 10 10 10 9 9 10 9 8 8 8 4 1 3 2 4 3 7 7 8 7 7 7 6 5 5 5 4 3 4 3 2 3 2 2 3 3 4 4 4 5 6 7 8 9 10 11 12 12 13 14 14 14 15 16 16 17
13 13 15 16 13 13 13 13 12 13 13 12 12 12 11 10 11 12 13 13 13 13 12 13 13 12 11 9 9 9 11 9 8 10 9 8 9 8 6 8 8 5 3 5 4 3 6 7 7 6 7 6 5 5 5 4 4 3 4 3 3 2 3 3 4 5 5 5 5 6 7 8 9 9 11 12 12 13 14 14 15 15 16 17 17
13 13 12 10 12 13 12 13 13 12 12 12 12 12 12 11 11 11 13 12 12 14 13 13 12 13 10 10 10 10 9 9 9 8 9 8 7 8 7 2 2 7 2 5 3 5 4 4 5 6 6 6 6 5 5 5 5 5 6 4 2 3 3 4 4 6 5 5 5 6 7 8 9 10 10 12 13 13 14 14 15 15 16 17 18
11 10 8 10 11 11 13 13 13 12 12 12 12 12 13 12 11 12 11 11 12 12 12 13 13 13 12 10 10 10 10 9 8 9 8 10 10 9 9 8 1 2 5 4 4 8 5 3 5 6 7 6 6 6 6 5 6 6 6 3 1 1 4 4 6 6 5 5 6 6 7 7 8 10 10 11 13 13 14 15 15 16 16 17 18
9 9 9 9 11 11 12 13 13 13 12 12 12 12 13 13 12 12 12 9 11 13 12 12 13 14 13 11 9 10 9 9 9 9 9 9 8 7 9 10 10 6 3 6 5 7 5 6 3 5 6 7 6 6 6 6 5 6 6 3 2 0 2 4 6 6 5 5 6 6 6 7 8 9 11 12 13 13 14 15 15 16 16 17 17
10 8 10 10 11 12 12 13 13 12 13 13 13 12 11 12 13 13 13 11 11 12 11 12 12 12 11 13 12 10 10 9 9 9 9 8 8 8 9 11 10 10 8 8 9 8 7 6 7 7 6 6 7 5 6 5 6 5 3 3 2 1 2 4 6 6 6 6 6 6 7 8 9 10 11 12 13 14 15 15 15 16 16 17 18
9 8 9 10 11 12 12 11 11 11 12 13 13 12 11 9 11 13 13 12 12 11 11 12 12 11 11 11 10 9 8 9 10 10 9 9 9 9 9 8 9 12 10 11 9 7 5 5 3 6 5 7 6 6 5 6 7 6 3 3 2 2 3 3 5 6 6 7 7 7 8 8 9 11 12 13 14 15 15 15 15 15 16 17 18
7 7 8 9 9 10 10 10 10 11 12 12 11 11 12 12 10 9 10 12 12 13 11 11 11 11 11 12 10 9 8 9 8 7 7 8 8 8 8 7 8 10 10 7 5 6 6 10 6 3 8 7 7 6 5 5 6 5 3 3 3 4 3 1 5 7 7 8 8 8 9 9 10 11 12 13 14 15 15 15 15 16 16 17 18
7 7 7 9 9 10 9 10 10 11 11 11 9 10 10 12 11 9 9 11 13 14 12 11 11 11 11 10 9 9 7 7 8 8 8 7 8 8 8 8 8 7 8 7 8 6 4 7 6 5 8 9 7 7 5 4 4 7 3 3 3 5 1 1 3 7 8 9 9 9 9 10 11 11 12 12 14 15 16 16 16 16 16 17 17
5 6 7 8 8 9 10 10 11 11 10 9 8 9 9 10 11 12 10 11 12 11 11 12 10 11 12 12 11 10 10 10 8 6 6 7 7 7 7 7 8 7 8 8 8 4 1 0 4 6 7 8 5 6 7 6 4 3 2 2 2 1 1 1 2 5 8 9 9 9 9 9 10 11 12 12 14 15 16 16 16 16 17 16 17
5 7 7 7 7 9 10 11 11 10 9 8 7 7 9 12 11 9 10 10 10 8 7 9 9 8 9 10 10 9 9 11 10 9 8 8 7 7 7 8 8 8 6 8 8 8 7 2 3 3 6 6 6 5 8 7 4 2 2 2 1 1 1 0 1 3 7 9 9 9 9 9 10 11 12 13 14 15 16 16 16 16 16 16 17
5 6 7 7 8 9 10 10 11 10 10 9 8 8 9 9 11 12 12 11 11 9 8 8 7 6 7 8 8 8 6 6 7 8 8 9 8 10 9 7 8 8 7 6 7 8 9 7 5 8 7 5 6 6 4 4 4 3 2 2 1 0 1 1 2 3 7 10 9 8 9 9 10 12 13 14 15 15 16 16 16 16 16 16 17
4 5 5 5 6 7 8 10 11 12 12 10 10 10 11 11 10 9 8 10 13 12 12 11 10 9 10 9 8 8 9 10 9 8 7 7 8 7 8 7 8 9 7 6 5 6 7 9 7 8 6 7 2 2 4 3 3 3 3 2 1 1 1 1 2 3 5 10 9 9 9 9 10 12 13 14 15 16 16 16 16 16 16 16 17
4 4 4 4 5 6 7 6 5 6 8 10 9 7 7 8 10 10 10 10 10 10 11 11 11 12 11 12 11 11 11 12 10 9 8 9 8 8 9 8 8 6 5 6 6 4 7 9 6 3 2 2 1 2 4 5 1 2 2 3 3 2 1 2 2 3 6 9 9 8 8 9 9 11 14 15 15 15 16 16 15 15 16 16 17
4 4 4 4 4 4 5 5 5 4 4 4 7 10 11 10 9 9 9 10 11 11 12 13 14 13 13 12 12 13 13 14 12 10 10 11 8 9 9 8 7 6 7 5 5 6 7 7 8 5 2 5 1 1 3 4 5 4 3 3 3 2 2 2 2 2 2 3 3 2 3 5 6 10 14 14 15 15 15 16 16 16 16 16 17
5 6 5 5 5 5 6 5 5 6 6 6 6 7 7 8 9 9 8 9 9 7 8 9 11 13 12 11 11 12 13 12 11 12 11 10 9 11 10 9 7 8 7 7 7 7 7 6 3 3 5 2 3 4 2 4 4 4 5 3 5 3 2 2 2 2 2 4 6 6 4 3 6 7 12 14 15 15 16 16 15 16 15 17 17
4 4 5 5 6 5 7 8 8 7 8 8 8 8 8 8 8 9 9 10 10 9 8 7 6 8 10 12 13 13 13 13 14 13 13 13 9 10 8 7 8 8 9 8 7 7 6 6 5 5 2 3 1 0 2 4 3 3 5 6 7 5 4 2 4 3 2 3 5 4 1 2 4 6 10 12 13 15 16 14 14 15 16 16 17
4 4 4 4 5 5 5 4 5 4 5 6 6 7 7 8 8 10 10 10 10 10 8 8 9 9 9 9 12 13 14 14 16 14 14 13 11 10 8 8 9 9 8 7 7 6 5 5 4 2 4 4 5 6 6 6 10 11 5 6 6 3 2 4 3 3 4 3 2 3 3 1 5 5 4 6 6 8 10 14 11 14 16 16 16
3 3 3 3 3 4 5 5 5 5 5 5 8 12 11 9 8 9 8 7 7 7 7 7 7 7 9 9 9 13 15 15 14 14 14 14 13 11 10 10 11 10 9 8 7 7 7 7 6 6 6 8 8 9 10 9 5 3 5 6 6 3 0 4 4 1 1 3 1 3 6 1 2 5 4 6 7 6 6 7 6 9 12 15 15
4 4 3 4 4 4 4 4 5 5 6 6 10 11 13 14 9 7 9 9 8 8 9 9 10 9 7 5 3 6 8 8 9 12 13 14 13 12 13 13 11 11 12 11 8 9 9 8 7 6 7 10 10 8 10 7 5 8 6 5 5 3 3 2 5 1 3 4 1 1 6 2 2 5 5 6 7 6 6 7 12 15 15 13 13
3 3 3 3 4 4 4 4 5 6 6 8 9 10 11 12 11 7 6 6 7 8 8 9 8 7 5 5 4 5 6 8 7 8 10 12 13 13 12 14 14 13 9 10 12 9 8 8 8 10 9 11 9 7 7 6 7 5 5 5 6 5 5 5 3 4 3 3 1 1 8 4 3 5 6 6 5 7 7 10 15 15 14 11 10
3 3 3 3 4 3 3 4 5 5 5 7 8 9 9 9 10 8 5 6 7 7 7 8 8 8 8 7 6 5 6 9 7 7 8 9 10 13 12 13 14 14 12 9 6 10 12 11 11 10 11 9 6 8 9 7 6 7 5 5 6 5 4 5 6 3 3 3 2 2 5 5 3 4 6 5 6 7 8 9 14 15 12 9 9
2 3 3 3 3 3 3 4 5 5 6 7 7 8 8 9 10 9 5 6 6 6 7 7 6 6 7 9 9 7 6 7 7 8 7 8 8 8 8 8 8 10 11 11 10 9 8 9 9 11 9 5 8 6 6 7 9 8 8 7 6 6 7 8 2 3 2 1 2 1 3 4 4 3 5 5 5 7 8 10 15 13 9 7 10
2 3 3 3 3 3 3 3 4 5 5 6 7 8 8 8 9 8 4 4 4 4 5 5 6 7 8 9 9 10 9 8 8 10 10 9 9 9 8 8 9 8 8 8 7 5 5 6 5 4 3 5 3 3 6 6 7 5 5 4 6 5 2 1 3 3 4 4 6 3 5 1 1 2 4 4 5 7 9 10 14 11 6 9 11
1 1 2 1 3 4 3 3 4 6 4 5 6 7 8 8 8 5 4 5 5 5 5 5 5 5 6 8 8 8 9 9 10 13 11 9 9 10 9 8 7 6 7 4 3 4 3 3 3 3 3 3 5 6 6 6 5 6 6 5 5 3 2 2 6 2 3 2 5 4 3 2 3 2 3 3 5 7 9 7 9 7 4 10 12
2 2 2 2 2 3 4 3 4 5 4 5 6 6 6 6 5 3 3 3 3 3 2 2 3 3 4 6 6 7 7 7 11 17 14 11 9 10 10 10 8 7 7 3 5 6 6 5 6 8 8 9 10 11 11 11 9 8 7 5 6 5 5 6 5 2 4 0 2 3 2 5 1 1 5 3 4 7 7 6 4 3 6 9 12
2 2 2 2 2 2 2 3 3 4 4 5 6 4 4 4 4 3 2 2 1 1 1 2 2 3 4 6 6 4 6 6 13 16 16 14 11 12 11 11 10 10 8 5 4 4 6 6 7 8 9 9 10 11 12 13 14 11 9 10 6 7 7 6 7 4 3 2 3 3 1 5 2 2 4 4 2 3 5 4 4 3 6 8 12
1 1 1 1 2 2 2 2 4 3 3 4 6 6 4 2 3 2 3 3 3 3 3 3 2 3 3 4 7 6 6 7 15 15 17 15 10 12 12 10 11 12 9 8 8 7 6 5 4 4 3 6 6 5 7 13 14 11 9 6 6 7 8 7 6 1 3 3 3 2 0 4 4 3 4 7 4 4 2 4 1 4 5 5 5
Wind_Direction
179 187 173 189 194 197 193 193 192 205 191 208 194 198 211 204 200 205 194 200 215 235 235 236 228 220 205 222 214 213 242 244 240 249 257 243 195 212 202 190 139 132 86 74 66 53 22 12 3 8 20 36 50 56 57 50 51 48 54 61 67 65 60 63 66 61 58 60 58 56 55 52 48 45 45 44 41 38 35 33 32 31 29 27 25
182 191 178 191 192 197 191 187 188 183 183 194 195 186 207 236 233 207 197 215 219 231 216 236 240 211 200 200 215 215 221 231 232 229 231 216 198 196 196 150 144 127 102 99 87 76 63 38 35 39 55 56 62 63 64 56 51 51 63 72 68 66 61 69 68 68 66 63 59 55 54 53 50 47 44 42 39 36 33 31 29 27 26 23 21
174 184 195 183 184 171 185 171 183 186 174 198 191 191 196 206 208 207 204 213 231 215 192 226 238 259 216 201 207 217 225 228 235 231 227 229 192 182 165 139 148 129 119 109 100 91 75 73 70 62 65 66 68 66 69 61 56 61 75 77 70 71 72 69 67 67 66 62 60 56 56 53 50 47 44 40 37 34 31 28 26 24 22 20 18
179 183 188 184 184 180 186 177 191 199 181 196 197 210 205 208 206 185 181 166 208 229 229 216 232 226 194 218 232 229 240 239 245 243 231 211 218 144 125 142 133 118 131 112 100 92 85 79 71 66 58 61 60 66 61 58 69 81 77 76 78 75 73 70 68 67 65 65 61 58 55 53 50 47 43 39 35 32 28 25 23 22 20 18 16
188 185 184 182 185 184 192 200 197 200 194 200 195 205 187 159 204 193 166 175 214 245 198 201 238 261 215 222 220 233 238 240 246 240 229 213 197 139 120 136 130 128 132 109 102 101 94 83 74 70 71 68 63 64 69 82 84 88 81 77 78 78 75 73 70 67 67 64 61 57 54 52 50 46 42 37 33 29 26 22 20 19 17 15 13
175 193 181 179 183 188 194 205 207 206 199 194 190 192 199 187 211 191 203 191 234 250 269 270 255 261 259 251 225 235 239 237 227 216 199 198 157 120 129 131 131 155 124 109 106 103 98 90 84 83 77 82 104 87 90 87 92 90 86 84 79 78 76 74 70 67 65 63 60 57 53 50 46 42 39 35 31 27 23 20 18 16 14 12 10
178 182 189 181 185 194 199 204 202 204 195 196 182 188 187 205 179 193 209 215 215 234 223 234 246 243 237 237 241 245 233 220 213 225 202 173 107 121 135 141 148 161 124 107 95 97 94 90 85 82 93 107 144 92 96 101 100 95 94 84 82 79 75 71 68 67 64 61 57 55 50 46 42 38 35 31 27 24 21 18 15 13 11 9 8
189 182 186 187 188 194 202 200 201 194 193 192 184 190 195 205 203 186 193 218 216 238 225 234 238 241 243 241 242 230 213 204 213 202 193 133 137 134 140 150 156 150 139 116 107 96 94 90 86 79 93 128 95 98 107 108 103 98 91 87 83 79 75 70 68 65 62 59 55 51 47 43 39 36 32 28 25 21 18 15 12 10 8 6 6
196 185 186 189 188 193 199 198 197 194 188 190 191 194 193 202 212 203 189 200 205 221 234 215 228 232 240 240 238 219 215 203 212 185 164 136 145 146 142 149 152 152 137 123 115 103 95 93 80 54 38 80 106 124 119 116 103 95 91 89 83 79 75 72 68 65 61 57 53 48 45 40 37 33 29 26 22 19 15 12 10 7 6 4 3
196 191 194 196 193 192 196 196 192 195 192 189 198 195 196 191 210 211 196 191 203 208 232 239 227 242 234 227 233 202 216 218 198 178 163 145 158 155 156 148 135 139 135 135 131 119 110 100 89 72 61 67 70 83 103 98 100 98 94 87 83 80 76 73 68 63 60 56 51 46 41 37 32 29 25 22 19 15 11 8 6 5 3 1 359
194 194 197 198 200 200 198 200 192 193 194 193 197 199 198 194 198 216 216 201 198 207 214 217 229 218 228 238 239 222 228 231 183 178 173 162 161 160 147 146 136 126 130 141 139 133 122 114 99 92 75 70 73 73 86 90 89 94 92 86 85 80 76 73 68 62 58 53 48 42 37 33 28 22 21 18 15 11 7 3 2 1 360 357 356
197 198 200 199 203 204 205 201 199 191 192 193 197 193 197 200 208 203 214 231 226 215 210 202 214 224 249 272 252 249 262 222 183 177 165 157 158 156 154 153 137 129 132 138 144 143 136 132 118 112 101 82 75 68 66 74 85 78 77 83 84 83 78 72 67 59 54 49 44 39 33 29 23 18 15 13 10 7 2 360 359 358 357 356 355
201 198 203 203 206 206 207 207 198 198 196 200 195 197 196 195 201 199 200 210 227 214 219 185 197 264 288 276 291 257 242 227 191 180 175 166 155 156 154 143 138 131 143 132 139 148 151 142 135 122 110 106 84 71 63 51 61 71 68 74 79 80 76 69 64 60 52 47 40 35 30 22 18 14 11 10 6 3 359 357 356 356 354 354 353
198 199 204 202 204 206 208 207 198 201 202 200 201 198 197 198 192 207 208 199 214 195 206 145 205 204 219 304 307 298 261 223 196 185 176 166 164 146 157 150 143 140 132 128 129 134 147 147 139 130 122 111 105 90 70 49 37 57 66 60 70 73 71 66 63 58 52 43 34 30 23 17 13 10 8 5 2 358 355 354 353 353 351 351 350
195 198 200 204 206 205 209 207 206 196 198 204 201 204 203 203 198 199 208 224 211 206 193 184 196 171 132 103 276 239 315 272 261 203 182 169 156 148 154 151 150 150 149 133 134 130 133 141 143 136 126 113 112 108 92 76 63 55 51 45 47 58 64 65 61 56 50 41 29 22 19 13 8 6 3 360 357 353 350 350 350 350 350 348 347
197 197 200 202 203 206 206 208 209 202 200 202 205 208 205 207 205 208 191 208 209 225 200 191 167 136 192 199 213 140 272 248 182 219 189 167 159 163 158 155 143 145 142 141 149 139 126 129 136 139 133 126 121 122 115 95 65 49 35 27 43 45 48 62 56 56 47 37 27 16 14 9 5 1 357 354 351 348 345 347 348 348 347 346 345
200 200 200 203 203 205 205 207 208 206 205 207 206 208 205 205 201 200 199 201 209 211 220 195 189 188 156 121 66 180 214 224 148 219 161 162 185 164 170 150 146 153 149 156 150 145 132 127 135 138 137 127 120 121 130 122 81 49 31 11 48 47 42 50 53 48 40 29 22 13 8 4 360 355 351 349 346 345 342 345 346 346 346 344 344
203 204 204 203 205 206 206 206 208 209 208 211 210 208 209 205 202 199 203 206 197 199 211 228 199 196 195 184 162 175 180 218 149 209 167 230 153 173 173 159 151 153 154 155 154 149 140 139 142 141 140 136 142 148 139 108 81 49 24 328 71 58 56 40 35 33 30 22 16 6 0 359 356 350 348 344 344 342 341 343 345 345 345 345 343
209 206 207 207 208 208 208 209 209 211 209 210 212 211 208 206 199 201 203 199 191 203 204 198 221 234 210 201 141 142 151 132 200 111 185 215 142 169 188 162 161 153 160 165 159 147 152 144 147 145 145 148 159 158 120 93 78 57 40 48 75 68 59 50 33 21 18 10 8 359 354 354 353 349 346 344 342 343 344 345 345 346 346 344 343
214 212 211 210 212 213 212 213 213 214 209 213 215 213 211 209 204 204 202 197 198 205 201 189 191 212 201 205 190 169 181 142 143 162 162 178 204 77 72 150 170 177 167 165 164 158 153 154 150 151 150 161 164 154 128 120 104 66 359 23 65 55 52 45 31 22 12 360 358 350 348 352 351 348 347 346 345 344 346 348 347 347 345 343 343
216 216 214 213 212 216 213 215 216 217 213 218 219 214 211 208 204 205 206 204 202 205 196 199 198 199 176 213 186 190 187 205 172 139 143 165 199 180 166 83 201 215 184 170 169 161 160 161 160 157 160 164 165 149 137 126 114 53 15 17 28 32 44 31 23 15 5 351 350 345 349 351 350 349 349 347 346 346 349 349 348 346 344 343 342
220 217 216 214 213 212 215 215 217 217 215 219 218 217 216 213 209 207 206 205 202 201 206 196 200 195 188 182 190 185 190 205 210 202 215 192 174 196 175 169 182 219 193 175 172 170 162 158 159 163 164 166 161 151 141 148 161 97 8 26 17 19 25 9 11 360 351 346 344 347 352 352 352 351 348 347 347 348 350 349 347 346 344 344 343
216 221 220 217 215 211 214 217 216 216 217 218 219 217 217 215 212 209 207 205 202 203 206 200 195 194 194 189 195 191 194 198 199 193 187 188 149 191 181 191 182 172 216 188 171 172 166 165 165 171 169 171 166 151 147 167 177 174 98 50 32 15 336 345 351 346 344 341 342 348 358 355 353 350 347 347 348 349 350 348 347 345 346 344 344
214 219 221 219 217 215 214 217 218 216 217 217 220 219 218 215 212 209 210 208 205 200 203 203 196 199 200 198 199 195 201 202 196 187 193 202 188 184 181 161 228 239 177 171 184 166 172 174 176 170 172 168 175 148 153 166 197 169 106 68 47 4 327 330 335 341 338 337 342 353 357 354 351 347 347 347 348 349 348 347 347 347 346 346 345
219 219 223 218 217 221 217 217 220 220 221 219 224 221 220 216 214 211 209 204 203 200 203 206 197 198 202 202 198 198 204 200 187 191 199 192 192 176 199 170 175 186 191 158 181 205 184 180 173 177 165 168 163 143 160 178 198 161 114 77 48 20 1 330 327 333 331 334 347 353 355 350 342 344 346 346 347 347 345 346 347 347 346 345 344
222 223 223 217 219 223 223 224 224 224 221 223 223 223 222 222 217 216 212 209 202 202 205 204 202 204 197 196 202 202 204 195 194 188 191 181 195 184 164 193 125 176 159 175 186 147 236 201 185 170 167 165 157 148 167 183 194 153 120 106 58 11 1 326 323 322 328 338 350 352 352 342 338 341 345 345 345 345 344 346 346 347 346 344 343
227 229 218 217 219 220 221 223 221 222 221 222 224 223 222 223 221 219 216 210 204 201 206 201 204 202 201 201 202 203 201 197 191 198 189 194 185 178 160 161 114 181 182 199 189 205 173 180 175 180 177 162 157 163 174 181 184 152 123 110 97 13 337 327 318 322 330 340 347 348 342 336 335 338 343 344 344 343 344 345 346 346 344 342 341
230 223 219 212 215 218 218 220 219 219 219 222 223 224 222 222 221 216 217 206 205 204 205 203 206 201 203 201 199 208 202 197 195 196 193 191 186 173 175 174 168 196 206 199 211 224 180 161 202 203 174 167 170 169 181 174 182 152 127 119 121 101 306 313 322 321 326 336 340 338 332 334 335 337 340 342 343 342 343 345 345 343 341 340 339
229 215 218 213 215 216 218 220 218 219 220 223 226 226 224 222 220 217 216 204 206 208 204 205 207 203 206 202 203 200 202 200 198 195 191 185 181 178 179 180 183 171 185 202 216 193 218 192 166 211 178 170 168 175 166 186 186 165 136 128 135 140 253 309 318 315 320 328 330 327 329 334 335 334 337 340 341 341 342 343 342 341 339 339 338
223 219 214 216 217 216 220 220 219 218 222 225 226 227 224 228 226 219 212 201 207 208 207 206 206 202 206 205 205 201 193 196 200 192 184 182 177 180 182 186 176 187 186 191 215 198 179 212 177 165 179 178 166 177 177 189 187 162 147 138 144 170 231 302 303 306 315 322 321 321 328 331 330 330 335 338 337 337 336 338 337 337 337 335 335
228 221 216 219 217 217 218 222 218 221 223 227 224 226 225 229 227 231 220 205 205 210 209 205 207 201 203 205 201 198 180 188 185 186 182 171 179 176 180 172 190 193 177 178 197 238 172 191 215 185 164 176 171 170 181 185 183 167 159 149 163 187 187 237 281 296 308 317 320 325 328 327 324 327 332 334 333 330 331 332 333 333 333 332 331
225 221 217 217 213 214 214 218 220 221 225 226 223 226 224 226 222 222 225 217 210 209 208 204 200 197 198 202 194 188 179 176 176 174 173 175 168 169 174 179 187 184 167 172 199 212 206 189 166 162 165 161 168 161 184 192 188 178 163 166 180 171 152 204 267 285 297 313 321 324 321 319 321 324 329 331 330 327 328 329 331 331 331 330 329
221 222 219 215 212 213 213 215 219 222 223 225 222 219 224 230 222 214 213 218 218 216 202 202 202 195 196 195 192 190 172 169 174 166 163 161 160 164 164 168 178 179 171 176 192 204 316 110 140 163 165 148 170 178 174 183 185 200 169 180 168 148 163 202 247 277 285 301 312 312 310 315 321 323 327 330 327 326 326 327 329 330 328 328 328
220 225 220 215 211 210 212 213 217 220 216 217 213 220 224 219 224 223 208 208 222 217 201 203 194 190 189 191 186 181 183 176 165 170 169 163 163 158 170 175 185 186 189 170 195 170 184 172 109 132 159 182 157 191 174 175 202 191 241 250 153 145 151 180 233 269 276 289 301 303 309 318 323 324 326 328 326 325 325 325 326 326 326 327 327
241 231 222 216 214 212 210 210 210 211 212 214 211 213 223 232 229 219 214 210 212 207 201 200 191 179 180 185 180 171 164 155 171 175 169 174 174 174 178 179 187 191 190 184 156 191 171 193 173 166 178 186 179 184 188 163 171 172 214 274 257 105 141 175 228 252 268 285 295 303 313 321 325 324 325 326 324 323 322 321 321 323 324 324 325
253 247 232 222 215 211 213 213 210 208 208 206 209 210 218 221 224 226 228 219 212 206 198 190 186 183 185 179 178 170 169 174 176 178 188 182 178 179 175 187 187 191 194 188 201 163 182 163 205 186 184 162 205 129 142 141 152 183 197 234 209 201 194 183 216 260 274 288 296 307 316 320 322 321 319 321 321 319 317 317 318 320 321 322 322
263 256 249 236 219 212 222 230 226 214 207 205 207 216 227 231 230 223 213 212 215 207 197 191 189 189 187 186 178 178 179 183 183 182 178 186 190 182 187 184 190 183 176 191 198 181 161 184 175 204 149 128 125 142 150 146 205 236 271 232 239 238 202 182 202 247 268 287 300 309 312 310 315 316 315 316 315 314 312 312 313 316 319 319 317
282 266 249 244 244 256 260 252 242 241 241 216 209 213 214 220 227 228 222 216 214 209 202 196 193 189 187 189 180 181 183 185 185 185 183 191 185 191 191 187 182 165 175 187 192 182 172 180 164 153 183 163 135 168 181 161 166 212 258 277 292 235 194 200 193 229 257 266 288 306 286 296 303 314 311 309 308 308 307 307 310 316 318 316 314
270 265 255 252 251 246 245 240 238 236 236 235 236 230 223 221 221 218 214 214 214 219 224 212 199 196 188 182 183 185 184 183 177 182 184 190 191 199 196 186 171 168 177 185 187 178 170 153 152 159 156 182 140 197 241 171 180 186 202 254 276 251 223 204 265 227 219 266 274 278 280 296 321 318 304 303 304 304 303 303 308 312 313 311 311
285 282 277 262 258 247 249 246 241 231 227 224 223 225 223 217 213 215 212 210 208 204 199 202 211 201 186 180 177 183 189 191 187 187 181 188 188 195 190 169 170 171 182 181 185 175 166 163 166 167 167 158 211 210 90 132 182 254 213 194 232 233 229 206 211 230 251 214 264 286 324 351 305 296 296 297 296 296 297 300 302 305 307 307 311
304 296 300 300 291 281 277 272 275 271 256 242 231 223 221 217 209 212 211 208 204 202 201 201 202 202 194 186 187 191 191 190 190 183 187 183 177 189 184 172 174 179 179 185 180 166 164 159 158 102 148 190 208 176 185 189 199 208 179 181 226 235 263 299 259 201 217 208 238 324 286 44 312 298 295 294 285 287 289 291 295 299 292 301 312
294 282 294 293 286 271 272 275 268 265 255 248 239 234 222 213 209 211 207 203 201 201 192 189 195 201 195 194 200 194 190 191 191 189 189 187 186 182 173 178 181 179 180 174 174 174 164 179 191 176 196 214 205 202 203 211 191 113 155 176 209 206 40 282 283 225 155 128 89 303 283 271 246 284 273 275 277 275 276 283 272 275 293 307 310
317 328 334 309 289 284 278 277 281 266 258 252 249 239 229 220 214 208 202 202 194 191 194 192 196 195 197 198 201 201 197 194 193 190 187 185 181 175 172 184 191 186 172 173 181 173 178 188 183 196 202 212 218 205 212 194 181 189 187 182 192 162 201 239 276 270 185 105 130 237 288 264 190 258 253 251 265 266 260 263 275 295 302 304 311
317 328 313 289 295 291 286 280 266 261 256 256 258 255 239 228 215 209 204 198 196 197 195 193 193 191 174 175 183 182 197 194 184 188 189 186 182 180 180 191 199 209 223 189 169 169 184 181 189 206 198 213 211 190 204 182 194 177 180 176 190 192 200 210 218 230 190 131 121 284 283 278 203 232 253 248 264 269 259 267 289 296 296 302 314
321 325 307 320 301 307 290 278 274 273 275 274 273 263 252 236 223 205 200 198 192 195 192 194 194 187 178 171 172 186 195 182 180 184 180 184 189 187 189 194 202 205 203 215 218 194 175 183 192 201 204 203 192 212 201 188 154 175 154 189 191 202 202 216 227 213 193 157 68 248 265 268 187 226 233 252 262 269 269 276 284 288 293 302 321
331 317 321 316 315 312 303 284 286 290 276 289 275 263 251 233 218 202 204 200 200 196 195 190 186 174 175 175 180 188 186 181 182 178 179 182 179 182 190 193 197 201 205 208 190 191 191 195 185 201 210 174 202 201 184 155 162 185 177 207 183 201 205 222 238 247 240 122 228 210 278 264 208 163 250 265 248 267 270 273 280 284 286 308 328
305 302 306 316 307 305 301 294 287 283 285 309 290 269 258 238 222 205 196 189 187 194 193 192 192 190 187 188 190 188 180 182 184 177 175 177 178 184 186 193 194 195 200 200 202 186 175 196 201 199 170 195 190 147 162 172 176 164 174 183 187 192 191 344 320 256 274 234 190 168 251 216 132 167 249 261 260 262 269 275 278 275 283 322 328
334 319 318 315 307 312 305 308 297 288 302 325 299 279 258 244 222 204 191 192 194 194 192 190 192 199 195 187 186 187 185 187 181 171 172 165 172 180 186 190 189 195 209 200 147 132 145 150 157 158 152 159 149 155 156 151 127 115 90 78 75 89 129 284 258 312 247 246 185 165 254 248 177 242 243 230 251 259 269 265 263 252 309 329 330
338 341 317 319 321 310 310 311 304 297 313 334 321 298 279 252 202 193 179 185 202 204 210 191 189 189 197 202 199 192 182 188 184 185 172 157 170 179 186 188 192 191 208 159 156 146 141 136 142 146 147 148 151 153 156 152 144 134 120 124 192 166 171 227 266 217 254 268 279 167 189 281 231 200 288 210 215 256 268 249 246 207 326 329 324
320 299 294 333 3 353 329 316 326 312 322 330 322 305 284 230 180 165 138 133 116 113 98 141 174 204 216 215 207 190 187 187 189 185 176 169 180 185 187 184 186 200 204 165 143 168 173 166 155 148 152 156 162 169 170 168 164 156 157 200 188 159 208 208 237 219 274 281 255 158 78 242 298 344 333 284 237 248 233 240 183 290 323 326 315
306 315 355 18 15 15 14 1 3 358 341 332 332 329 313 229 157 155 162 169 181 193 181 200 198 204 214 214 209 195 189 189 194 190 186 185 193 190 189 183 195 206 199 163 171 161 148 135 138 131 148 162 173 175 192 189 187 183 193 192 146 176 201 210 215 91 330 288 251 185 152 277 22 320 44 350 342 261 200 190 257 316 315 283 284